Location: Henham
(51.9333°N, 0.2500°E)
Time: 06:55:24
(UTC+00:00)

Cosmos 1937 Rocket - Pass Details

Date: 23 October 2019
Orbit: 747 x 780 km, 74.0° (Epoch: 21 November)

Event Time Altitude Azimuth Distance (km) Brightness Sun altitude
Rises 18:14:02 0° 337° (NNW) 3,208 7.0 -13.7°
Reaches altitude 10° 18:16:29 10° 343° (NNW) 2,278 6.2 -14.1°
Maximum altitude 18:21:29 49° 58° (ENE) 962 3.7 -14.9°
Enters shadow 18:25:12 17° 128° (SE) 1,811 5.0 -15.5°
